This demonstration page uses our WeatherBlox Daily Observations layout. Learn more.

Left ArrowRight Arrow

Hourly Observations for April 6, 2015

Temp ( °F °C ) Dew Point ( °F °C ) Humidity (%) Winds ( mph kmh ) Pressure ( in mb ) Visibility ( mi km ) Precip ( " mm )
12:51 am 00:51 Clear 56 13.3 13 -10.6 18 18 N N/A 29.75 1007 10 16 N/A
1:51 am 01:51 Clear 52 11.1 15 -9.4 23 23 ESE 6 9 29.76 1008 10 16 N/A
2:51 am 02:51 Clear 51 10.6 14 -10 23 23 E 7 11 29.76 1008 10 16 N/A
3:51 am 03:51 Clear 51 10.6 14 -10 23 23 ESE 5 7 29.76 1008 10 16 N/A
4:51 am 04:51 Clear 48 8.9 16 -8.9 28 28 VRB 3 6 29.78 1008 10 16 N/A
5:51 am 05:51 Clear 45 7.2 15 -9.4 30 30 SE 6 9 29.80 1009 10 16 N/A
6:51 am 06:51 Sunny 50 10 17 -8.3 27 27 SSW 6 9 29.82 1010 10 16 N/A
7:51 am 07:51 Sunny 60 15.6 17 -8.3 19 19 N N/A 29.83 1010 10 16 N/A
8:51 am 08:51 Sunny 67 19.4 14 -10 13 13 SSE 3 6 29.84 1010 10 16 N/A
9:51 am 09:51 Sunny 72 22.2 10 -12.2 9 9 N 3 6 29.84 1011 10 16 N/A
10:51 am 10:51 Sunny 76 24.4 11 -11.7 8 8 NNE 5 7 29.84 1010 10 16 N/A
11:51 am 11:51 Sunny 77 25 11 -11.7 8 8 NE 6 9 29.83 1010 10 16 N/A
12:51 pm 12:51 Sunny 81 27.2 14 -10 8 8 VRB 5 7 29.79 1009 10 16 N/A
1:51 pm 13:51 Sunny 82 27.8 13 -10.6 7 7 VRB 5 7 29.77 1008 10 16 N/A
2:51 pm 14:51 Sunny 82 27.8 10 -12.2 6 6 undefined N/A 29.74 1007 10 16 N/A
3:51 pm 15:51 Sunny 83 28.3 12 -11.1 7 7 SW 9 15 29.72 1007 10 16 N/A
4:51 pm 16:51 Sunny 83 28.3 9 -12.8 6 6 W 17 28 29.72 1006 10 16 N/A
5:51 pm 17:51 Sunny 80 26.7 6 -14.4 6 6 W 17 28 29.73 1007 10 16 N/A
6:51 pm 18:51 Clear 75 23.9 9 -12.8 8 8 WNW 9 15 29.75 1007 10 16 N/A
7:51 pm 19:51 Clear 69 20.6 8 -13.3 9 9 NW 9 15 29.76 1008 10 16 N/A
8:51 pm 20:51 Clear 69 20.6 10 -12.2 10 10 NW 14 22 29.77 1008 10 16 N/A
9:51 pm 21:51 Clear 65 18.3 12 -11.1 13 13 WSW 8 13 29.79 1009 10 16 N/A
10:51 pm 22:51 Clear 61 16.1 12 -11.1 14 14 W 7 11 29.79 1009 10 16 N/A
11:51 pm 23:51 Clear 58 14.4 13 -10.6 17 17 SE 5 7 29.80 1009 10 16 N/A

Powered by AerisWeather